Location: Kuppenheim
(48.8299°N, 8.2568°E)
Time: 10:46:49
(UTC+00:00)

Spot 1 - Pass Details

Date: 20 June 2021
Orbit: 575 x 777 km, 98.7° (Epoch: 27 July)

Event Time Altitude Azimuth Distance (km) Brightness Sun altitude
Rises 02:28:58 0° 171° (S) 3,226 7.4 -7.3°
Reaches altitude 10° 02:31:19 10° 173° (S) 2,289 6.6 -7.0°
Maximum altitude 02:36:21 68° 257° (WSW) 800 4.5 -6.5°
Drops below altitude 10° 02:41:12 10° 340° (NNW) 2,205 7.3 -5.9°
Sets 02:43:26 0° 343° (NNW) 3,098 8.1 -5.7°
